CDT,Max TemperatureF,Mean TemperatureF,Min TemperatureF,Max Dew PointF,MeanDew PointF,Min DewpointF,Max Humidity, Mean Humidity, Min Humidity, Max Sea Level PressureIn, Mean Sea Level PressureIn, Min Sea Level PressureIn, Max VisibilityMiles, Mean VisibilityMiles, Min VisibilityMiles, Max Wind SpeedMPH, Mean Wind SpeedMPH, Max Gust SpeedMPH,PrecipitationIn, CloudCover, Events, WindDirDegrees
2013-7-1,84,70,55,59,55,51,93,63,32,30.16,30.11,30.07,10,10,10,13,3,18,0.00,0,,5
2013-7-2,82,71,59,59,56,53,90,65,39,30.10,30.07,30.03,10,10,7,12,5,15,0.00,1,,97
2013-7-3,82,69,55,58,53,48,86,60,33,30.09,30.03,29.97,10,10,10,10,5,13,0.00,3,,126
2013-7-4,86,74,61,66,60,58,90,67,43,30.03,29.98,29.92,10,9,2,20,8,23,0.14,3,Rain,153
2013-7-5,88,77,65,62,61,59,81,60,39,29.99,29.93,29.89,10,10,10,21,10,26,0.00,0,,165
2013-7-6,91,82,72,65,64,62,73,59,44,29.94,29.90,29.85,10,10,10,17,10,23,0.00,0,,170
2013-7-7,90,83,75,70,68,65,74,63,51,29.89,29.85,29.82,10,10,10,17,10,22,0.00,1,,176
2013-7-8,92,83,73,72,70,66,87,68,49,29.94,29.89,29.81,10,9,7,13,6,16,0.00,3,,271
2013-7-9,91,82,72,74,71,68,93,73,52,29.92,29.85,29.76,10,9,5,22,8,30,0.13,3,Rain-Thunderstorm,192
2013-7-10,83,72,61,67,58,52,78,56,34,30.02,29.94,29.83,10,10,10,21,10,25,0.00,1,,330
2013-7-11,87,73,59,61,57,50,93,61,29,30.10,30.06,30.02,10,10,9,12,5,14,0.00,0,,180
2013-7-12,86,75,63,62,59,56,87,62,37,30.09,30.04,29.99,10,10,8,20,10,23,0.00,0,,160
2013-7-13,83,76,68,64,60,56,79,61,43,30.09,30.06,30.01,10,10,10,20,9,23,T,2,Rain,165
2013-7-14,91,78,64,66,62,60,87,63,38,30.18,30.14,30.11,10,10,10,15,6,18,0.00,1,,149
2013-7-15,93,81,68,73,68,65,90,67,44,30.23,30.19,30.14,10,10,8,12,4,15,0.00,3,,133
2013-7-16,96,85,74,73,71,69,87,65,43,30.22,30.19,30.16,10,10,8,16,7,21,0.00,1,,188
2013-7-17,98,88,77,75,70,65,85,60,35,30.24,30.18,30.10,10,10,10,12,6,17,0.00,0,,211
2013-7-18,98,89,79,75,69,67,85,60,35,30.10,29.95,29.80,10,10,10,23,11,35,0.00,0,,196
2013-7-19,95,81,67,70,65,60,73,54,34,29.84,29.76,29.70,10,10,9,23,11,31,0.02,1,Rain,267
2013-7-20,85,76,66,65,62,58,87,64,40,29.91,29.87,29.83,10,10,10,9,4,20,0.00,1,,26
2013-7-21,77,71,64,65,63,60,87,76,64,29.96,29.90,29.84,10,10,7,15,7,18,0.07,4,Rain-Thunderstorm,110
2013-7-22,90,77,63,75,66,60,93,75,56,29.84,29.74,29.63,10,9,2,21,8,26,0.23,4,Rain-Thunderstorm,173
2013-7-23,77,69,60,61,54,51,84,64,43,30.00,29.90,29.77,10,10,10,16,8,22,0.00,1,,354
2013-7-24,79,66,53,57,52,48,93,65,36,30.09,30.03,29.99,10,10,10,9,3,28,0.00,2,,92
2013-7-25,82,71,59,66,62,56,93,76,58,30.02,29.97,29.91,10,8,0,32,7,40,0.74,4,Fog-Rain-Thunderstorm,174
2013-7-26,79,69,58,64,58,51,93,68,43,30.00,29.91,29.87,10,10,10,23,12,29,T,6,,282
2013-7-27,62,57,51,52,48,42,83,67,51,30.01,29.96,29.89,10,10,4,22,13,29,0.03,7,Rain,317
2013-7-28,70,61,51,53,49,46,93,70,47,30.06,29.95,29.89,10,10,10,21,8,24,T,6,Rain,323
2013-7-29,79,65,51,58,54,47,100,70,40,30.14,30.11,30.06,10,8,0,14,3,15,0.00,3,Fog,225
2013-7-30,79,70,60,63,59,56,90,72,54,30.12,30.08,30.04,10,10,10,13,6,17,0.00,7,,157
2013-7-31,81,73,64,65,62,57,81,65,48,30.07,30.01,29.94,10,10,10,14,5,20,T,5,,277